{"data":{"norad_id":49070,"intl_designator":"2021-073E","name":"PLEIADES NEO 4","alt_names":[],"object_type":"PAYLOAD","status":"ACTIVE","operator":null,"country":"FR","launch_date":"2021-08-17","launch_site_code":"FRGUI","launch_vehicle":null,"mission":null,"orbit_class":"UNKNOWN","rcs_meters":null,"size_class":null,"mass_kg":null,"dimensions":null,"purposes":["earth_obs"],"wikipedia_slug":null,"has_3d_model":false,"image_url":null,"decayed_at":null,"tle_current":{"epoch":"2026-05-25T04:34:44.928192Z","epoch_age_seconds":55230,"freshness":"FRESH","line1":"1 49070U 21073E   26145.19079778  .00000723  00000+0  98495-4 0  9999","line2":"2 49070  97.8927 220.2839 0001462  92.3587 267.7793 14.81671706257968","mean_motion":14.81671706,"eccentricity":0.0001462,"inclination_deg":97.8927,"raan_deg":220.2839,"arg_perigee_deg":92.3587,"mean_anomaly_deg":267.7793,"bstar":9.8495e-5,"rev_number":25796,"period_min":97.187520971667,"perigee_km":623.02861315053,"apogee_km":625.07605331157,"semimajor_km":7002.189333231,"source":"CELESTRAK","updated_at":"2026-05-25T13:38:12.834238Z"}}}